KB1WCR Weather Reports


time (UTC)temp
F
wind
direction
speed
knots
gust
knots
rain 1hr
in
rain 24hr
in
rain mn
in
humidity
%
barometer
mb
20260903021359 60 306 0.0 0.0 0.00 0.00 0.00 99 1020.9
20260903020859 60 341 0.0 0.0 0.00 0.00 0.00 99 1020.8
20260903020355 60 296 0.0 0.0 0.00 0.00 0.00 99 1020.9
20260903015849 60 305 0.0 0.0 0.00 0.00 0.00 99 1021.0
20260903015344 60 302 0.0 0.0 0.00 0.00 0.00 99 1020.8
20260903014839 60 288 0.0 0.0 0.00 0.00 0.00 99 1020.8
20260903014334 60 50 0.0 0.0 0.00 0.00 0.00 99 1020.8
20260903013829 60 299 0.0 0.0 0.00 0.00 0.00 99 1020.8
20260903013328 60 283 0.0 0.0 0.00 0.00 0.00 99 1020.8
20260903012828 60 303 0.0 0.0 0.00 0.00 0.00 99 1020.9
20260903012321 60 302 0.0 0.0 0.00 0.00 0.00 99 1020.9
20260903011820 60 281 0.0 0.0 0.00 0.00 0.00 99 1020.8
20260903011315 60 333 0.0 0.0 0.00 0.00 0.00 99 1020.8
20260903010810 59 306 0.0 0.0 0.00 0.00 0.00 99 1020.9
20260903010306 59 75 0.9 1.7 0.00 0.00 0.00 99 1020.8
20260903005804 59 309 0.0 0.0 0.00 0.00 0.00 99 1020.7
20260903005259 59 276 0.0 0.0 0.00 0.00 0.00 99 1020.6
20260903004755 59 17 0.9 0.9 0.00 0.00 0.00 99 1020.5
20260903004250 59 303 0.0 0.9 0.00 0.00 0.00 99 1020.5
20260903003746 60 311 0.0 0.0 0.00 0.00 0.00 99 1020.5
20260903003240 60 301 0.0 0.0 0.00 0.00 0.00 99 1020.6
20260903002735 60 333 0.0 0.0 0.00 0.00 0.00 99 1020.7
20260903002229 60 336 0.0 0.0 0.00 0.00 0.00 99 1020.6
20260903001725 60 342 0.0 0.0 0.00 0.00 0.00 99 1020.6
20260903001225 60 287 0.0 0.0 0.00 0.00 0.00 99 1020.5
20260903000720 60 303 0.0 0.0 0.00 0.00 0.00 99 1020.6
20260903000219 60 240 0.9 0.9 0.00 0.00 0.00 99 1020.8
20260902235718 60 315 0.0 0.0 0.00 0.00 0.00 98 1020.9
20260902235214 60 280 0.0 0.0 0.00 0.00 0.00 98 1021.0
20260902234713 60 2 0.9 0.9 0.00 0.00 0.00 98 1021.0
20260902234212 60 323 0.9 0.9 0.00 0.00 0.00 97 1020.9
20260902233706 61 311 0.0 0.0 0.00 0.00 0.00 97 1021.1
20260902233201 61 287 0.0 0.0 0.00 0.00 0.00 97 1021.3
20260902232700 61 315 0.0 0.0 0.00 0.00 0.00 97 1021.3
20260902232159 61 339 0.0 0.0 0.00 0.00 0.00 96 1021.4
20260902231653 61 324 0.0 0.0 0.00 0.00 0.00 96 1021.4
20260902231148 61 290 0.0 0.0 0.00 0.00 0.00 96 1021.5
20260902230644 61 315 0.0 0.0 0.00 0.00 0.00 95 1021.5
20260902230143 62 304 0.0 0.0 0.00 0.00 0.00 95 1021.5
20260902225638 62 331 0.0 0.0 0.00 0.00 0.00 94 1021.4
20260902225137 62 317 0.0 0.0 0.00 0.00 0.00 94 1021.4
20260902224636 62 330 0.0 0.0 0.00 0.00 0.00 94 1021.4
20260902224132 62 350 0.0 0.0 0.00 0.00 0.00 93 1021.7
20260902223628 62 3 0.9 1.7 0.00 0.00 0.00 93 1021.7
20260902223127 63 356 0.9 0.9 0.00 0.00 0.00 92 1021.8
20260902222626 63 303 0.0 0.0 0.00 0.00 0.00 92 1022.0
20260902222125 63 336 0.0 0.0 0.00 0.00 0.00 91 1021.9
20260902221619 63 287 0.0 0.0 0.00 0.00 0.00 91 1021.7
20260902221114 64 262 0.0 0.0 0.00 0.00 0.00 90 1021.7
20260902220610 64 289 0.9 0.9 0.00 0.00 0.00 90 1021.6
20260902220104 64 322 0.0 0.0 0.00 0.00 0.00 90 1021.7
20260902215601 64 351 0.0 0.0 0.00 0.00 0.00 90 1021.8
20260902215055 64 284 0.9 0.9 0.00 0.00 0.00 89 1021.7
20260902214550 64 12 1.7 2.6 0.00 0.00 0.00 88 1021.8
20260902214049 64 330 0.0 0.0 0.00 0.00 0.00 88 1021.8
20260902213545 64 15 0.9 1.7 0.00 0.00 0.00 88 1022.0
20260902213044 64 43 0.9 0.9 0.00 0.00 0.00 88 1021.9
20260902212539 64 330 1.7 2.6 0.00 0.00 0.00 87 1021.7
20260902212030 65 89 0.9 0.9 0.00 0.00 0.00 86 1022.0
20260902211526 65 326 0.0 0.9 0.00 0.00 0.00 87 1021.9
20260902211020 65 348 0.0 0.9 0.00 0.00 0.00 86 1021.8
20260902210514 65 317 0.0 0.0 0.00 0.00 0.00 85 1021.8
20260902210013 65 349 0.9 0.9 0.00 0.00 0.00 85 1021.7
20260902205508 64 11 0.9 0.9 0.00 0.00 0.00 85 1021.8
20260902205003 65 251 1.7 1.7 0.00 0.00 0.00 85 1022.2
20260902204502 65 330 0.9 1.7 0.00 0.00 0.00 85 1022.3
20260902203958 65 212 0.9 0.9 0.00 0.00 0.00 84 1022.2
20260902203454 66 240 1.7 1.7 0.00 0.00 0.00 83 1022.4
20260902202952 66 299 0.0 0.0 0.00 0.00 0.00 84 1022.3
20260902202448 66 3 2.6 3.5 0.00 0.00 0.00 84 1022.2
20260902201945 66 327 0.9 0.9 0.00 0.00 0.00 83 1022.1
20260902201440 66 284 0.9 0.9 0.00 0.00 0.00 83 1022.3
20260902200940 66 187 0.0 0.9 0.00 0.00 0.00 84 1022.3
20260902200435 66 304 1.7 1.7 0.00 0.00 0.00 83 1022.2
20260902195930 66 339 0.0 0.9 0.00 0.00 0.00 83 1022.1
20260902195426 66 326 3.5 5.2 0.00 0.00 0.00 82 1022.5
20260902194920 66 263 0.9 1.7 0.00 0.00 0.00 83 1022.7
20260902194419 66 7 0.9 0.9 0.00 0.00 0.00 83 1022.5
20260902193915 66 57 2.6 3.5 0.00 0.00 0.00 82 1022.7
20260902193411 66 48 3.5 5.2 0.00 0.00 0.00 81 1022.9
20260902192909 66 318 0.0 0.9 0.00 0.00 0.00 83 1022.8
20260902192409 66 11 1.7 2.6 0.00 0.00 0.00 83 1022.8
20260902191908 66 259 0.9 1.7 0.00 0.00 0.00 82 1022.7
20260902191404 65 205 0.9 1.7 0.00 0.00 0.00 83 1022.8
20260902190858 65 60 2.6 2.6 0.00 0.00 0.00 83 1022.8
20260902190353 65 68 0.9 1.7 0.00 0.00 0.00 83 1022.8
20260902185849 65 352 1.7 1.7 0.00 0.00 0.00 83 1022.8
20260902185345 66 8 2.6 5.2 0.00 0.00 0.00 82 1023.1
20260902184840 65 95 0.9 0.9 0.00 0.00 0.00 83 1022.9
20260902184335 66 316 0.9 0.9 0.00 0.00 0.00 82 1022.9
20260902183830 66 320 0.9 0.9 0.00 0.00 0.00 83 1022.8
20260902183327 66 239 0.9 1.7 0.00 0.00 0.00 83 1022.9
20260902182822 66 347 0.9 0.9 0.00 0.00 0.00 82 1022.9
20260902182319 66 298 1.7 2.6 0.00 0.00 0.00 82 1022.9
20260902181815 66 287 0.9 0.9 0.00 0.00 0.00 81 1022.9
20260902181310 66 338 0.0 0.9 0.00 0.00 0.00 82 1023.0
20260902180804 67 177 0.9 0.9 0.00 0.00 0.00 83 1023.2
20260902180300 67 281 0.9 0.9 0.00 0.00 0.00 80 1023.2
20260902175755 67 138 0.9 0.9 0.00 0.00 0.00 82 1023.1
20260902175251 67 288 0.9 0.9 0.00 0.00 0.00 82 1023.1
20260902174746 67 249 0.9 1.7 0.00 0.00 0.00 82 1023.0
20260902174242 68 344 0.9 0.9 0.00 0.00 0.00 80 1023.0
20260902173737 67 259 1.7 1.7 0.00 0.00 0.00 81 1022.8
20260902173237 67 247 0.9 1.7 0.00 0.00 0.00 81 1022.9
20260902172731 68 349 1.7 2.6 0.00 0.00 0.00 80 1022.8
20260902172226 68 59 2.6 2.6 0.00 0.00 0.00 79 1022.8
20260902171721 68 37 4.3 5.2 0.00 0.00 0.00 79 1022.7
20260902171216 68 333 0.9 0.9 0.00 0.00 0.00 79 1022.7
20260902170712 68 4 5.2 7.8 0.00 0.00 0.00 77 1022.8
20260902170208 68 137 2.6 2.6 0.00 0.00 0.00 78 1022.7
20260902165702 69 8 0.9 0.9 0.00 0.00 0.00 78 1022.7
20260902165156 69 210 0.0 0.0 0.00 0.00 0.00 79 1022.7
20260902164652 68 323 0.9 0.9 0.00 0.00 0.00 80 1022.9
20260902164150 68 55 3.5 3.5 0.00 0.00 0.00 77 1022.8
20260902163646 68 194 3.5 6.1 0.00 0.00 0.00 77 1022.9
20260902163146 68 255 1.7 1.7 0.00 0.00 0.00 77 1023.0
20260902162644 68 194 1.7 1.7 0.00 0.00 0.00 79 1023.1
20260902162139 68 240 2.6 2.6 0.00 0.00 0.00 76 1023.2
20260902161634 68 199 2.6 2.6 0.00 0.00 0.00 77 1023.3
20260902161130 69 233 0.0 0.9 0.00 0.00 0.00 78 1023.3
20260902160626 69 321 0.0 0.0 0.00 0.00 0.00 78 1023.3
20260902160120 69 202 2.6 2.6 0.00 0.00 0.00 76 1023.3
20260902155613 69 276 0.0 0.9 0.00 0.00 0.00 76 1023.4
20260902155112 69 285 0.9 1.7 0.00 0.00 0.00 77 1023.4
20260902154607 69 243 0.9 0.9 0.00 0.00 0.00 76 1023.4
20260902154103 69 35 0.9 2.6 0.00 0.00 0.00 75 1023.5
20260902153601 68 318 0.0 0.9 0.00 0.00 0.00 75 1023.6
20260902153056 68 333 4.3 6.1 0.00 0.00 0.00 73 1023.7
20260902152553 69 3 0.9 0.9 0.00 0.00 0.00 71 1023.6
20260902152048 69 138 2.6 3.5 0.00 0.00 0.00 72 1023.5
20260902151544 69 6 1.7 2.6 0.00 0.00 0.00 75 1023.5
20260902151043 69 181 1.7 2.6 0.00 0.00 0.00 73 1023.4
20260902150538 68 111 0.9 2.6 0.00 0.00 0.00 77 1023.2
20260902150034 67 41 1.7 1.7 0.00 0.00 0.00 79 1023.2
20260902145529 68 51 0.9 1.7 0.00 0.00 0.00 76 1023.3
20260902145028 68 298 1.7 2.6 0.00 0.00 0.00 77 1023.2
20260902144526 68 333 0.9 1.7 0.00 0.00 0.00 76 1023.2
20260902144025 67 242 1.7 1.7 0.00 0.00 0.00 77 1023.3
20260902143520 68 194 2.6 2.6 0.00 0.00 0.00 77 1023.3
20260902143016 67 228 0.0 0.0 0.00 0.00 0.00 80 1023.4
20260902142512 67 306 0.9 0.9 0.00 0.00 0.00 79 1023.3
20260902142007 67 279 0.0 0.0 0.00 0.00 0.00 81 1023.1
20260902141501 67 319 0.0 0.0 0.00 0.00 0.00 82 1023.0
20260902140956 67 211 0.9 1.7 0.00 0.00 0.00 83 1023.2
20260902140451 66 289 0.9 1.7 0.00 0.00 0.00 85 1023.1
20260902135950 67 351 1.7 1.7 0.00 0.00 0.00 87 1022.8
20260902135446 67 40 0.9 1.7 0.00 0.00 0.00 88 1023.0
20260902134945 66 308 0.0 0.0 0.00 0.00 0.00 89 1022.8
20260902134441 66 45 0.9 1.7 0.00 0.00 0.00 89 1022.8
20260902133936 66 217 0.9 1.7 0.00 0.00 0.00 89 1022.9
20260902133431 66 123 2.6 2.6 0.00 0.00 0.00 90 1023.0
20260902132926 66 328 0.0 0.9 0.00 0.00 0.00 91 1023.0
20260902132421 66 350 1.7 2.6 0.00 0.00 0.00 91 1023.0
20260902131916 66 37 1.7 1.7 0.00 0.00 0.00 90 1023.0
20260902131413 66 359 0.9 1.7 0.00 0.00 0.00 91 1023.0
20260902130912 65 206 1.7 2.6 0.00 0.00 0.00 92 1023.0
20260902130408 64 326 0.0 0.0 0.00 0.00 0.00 94 1022.9
20260902125903 64 299 0.0 0.0 0.00 0.00 0.00 95 1022.9
20260902125359 63 254 0.9 0.9 0.00 0.00 0.00 96 1023.0
20260902124855 63 30 0.9 1.7 0.00 0.00 0.00 97 1023.0
20260902124350 63 324 0.9 0.9 0.00 0.00 0.00 98 1023.0
20260902123845 63 266 0.0 0.0 0.00 0.00 0.00 98 1023.1
20260902123342 62 302 0.0 0.0 0.00 0.00 0.00 99 1022.9
20260902122840 62 314 0.9 0.9 0.00 0.00 0.00 99 1022.9
20260902122336 62 41 1.7 2.6 0.00 0.00 0.00 99 1022.8
20260902121836 62 54 0.9 0.9 0.00 0.00 0.00 99 1023.1
20260902121331 62 352 0.9 0.9 0.00 0.00 0.00 99 1023.1
20260902120826 62 43 0.9 0.9 0.00 0.00 0.00 99 1023.3
20260902120323 62 354 0.0 0.0 0.00 0.00 0.00 99 1023.0
20260902115817 62 317 0.0 0.0 0.00 0.00 0.00 99 1023.0
20260902115314 62 282 0.0 0.0 0.00 0.00 0.00 99 1023.2
20260902114810 61 299 0.0 0.9 0.00 0.00 0.00 99 1022.9
20260902114305 61 282 0.0 0.9 0.00 0.00 0.00 99 1023.0
20260902113759 61 288 0.9 0.9 0.00 0.00 0.00 99 1023.0
20260902113255 61 328 0.9 0.9 0.00 0.00 0.00 99 1023.2
20260902112754 61 306 0.0 0.0 0.00 0.00 0.00 99 1022.9
20260902112252 61 336 0.9 1.7 0.00 0.00 0.00 99 1022.9
20260902111746 61 305 0.0 0.0 0.00 0.00 0.00 99 1022.8
20260902111243 61 304 0.0 0.0 0.00 0.00 0.00 99 1022.7
20260902110738 61 328 0.0 0.0 0.00 0.00 0.00 99 1022.9
20260902110234 61 337 0.0 0.0 0.00 0.00 0.00 99 1022.5
20260902105734 61 332 0.0 0.0 0.00 0.00 0.00 99 1022.7
20260902105229 61 327 0.0 0.0 0.00 0.00 0.00 99 1022.6
20260902104724 61 347 0.0 0.9 0.00 0.00 0.00 99 1022.5
20260902104221 61 18 3.5 3.5 0.00 0.00 0.00 99 1022.3
20260902103720 61 26 1.7 2.6 0.00 0.00 0.00 99 1022.3
20260902103214 61 358 0.0 0.0 0.00 0.00 0.00 99 1022.2
20260902102710 61 297 0.0 0.9 0.00 0.00 0.00 99 1022.5
20260902102207 61 293 0.0 0.0 0.00 0.00 0.00 99 1022.4
20260902101708 61 305 0.0 0.9 0.00 0.00 0.00 99 1022.3
20260902101202 61 316 0.0 0.0 0.00 0.00 0.00 99 1022.3
20260902100656 61 345 0.0 0.0 0.00 0.00 0.00 99 1022.2
20260902100151 61 315 0.0 0.9 0.00 0.00 0.00 99 1022.2
20260902095650 61 311 0.0 0.0 0.00 0.00 0.00 99 1022.2
20260902095144 61 309 0.0 0.0 0.00 0.00 0.00 99 1021.9
20260902094639 61 12 0.0 0.9 0.00 0.00 0.00 99 1022.2
20260902094136 61 31 0.9 0.9 0.00 0.00 0.00 99 1022.3
20260902093635 61 348 0.9 0.9 0.00 0.00 0.00 99 1022.1
20260902093130 61 313 0.0 0.0 0.00 0.00 0.00 99 1022.2
20260902092624 61 324 0.0 0.0 0.00 0.00 0.00 99 1022.4
20260902092120 61 319 0.0 0.0 0.00 0.00 0.00 99 1022.2
20260902091614 61 17 0.9 0.9 0.00 0.00 0.00 99 1022.2
20260902091111 61 326 0.0 0.0 0.00 0.00 0.00 99 1022.2
20260902090607 61 324 0.0 0.0 0.00 0.00 0.00 99 1022.1
20260902090105 61 293 0.0 0.0 0.00 0.00 0.00 99 1022.2
20260902085600 61 69 0.0 0.0 0.00 0.00 0.00 99 1022.2
20260902085055 61 324 0.0 0.0 0.00 0.00 0.00 99 1022.0
20260902084551 61 309 0.0 0.0 0.00 0.00 0.00 99 1022.2
20260902084046 61 330 0.0 0.0 0.00 0.00 0.00 99 1022.1
20260902083536 61 358 0.0 0.0 0.00 0.00 0.00 99 1022.2
20260902083036 61 330 0.0 0.0 0.00 0.00 0.00 99 1022.0
20260902082532 61 315 0.0 0.0 0.00 0.00 0.00 99 1022.2
20260902082028 61 343 0.0 0.0 0.00 0.00 0.00 99 1022.2
20260902081525 61 339 0.0 0.0 0.00 0.00 0.00 99 1022.0
20260902081024 61 311 0.0 0.0 0.00 0.00 0.00 99 1022.1
20260902080520 61 332 0.0 0.0 0.00 0.00 0.00 99 1022.2
20260902080016 61 316 0.0 0.0 0.00 0.00 0.00 99 1022.1
20260902075510 61 303 0.0 0.0 0.00 0.00 0.00 99 1021.9
20260902075006 61 325 0.0 0.0 0.00 0.00 0.00 99 1021.8
20260902074501 61 312 0.0 0.0 0.00 0.00 0.00 99 1021.8
20260902073956 61 341 0.9 0.9 0.00 0.00 0.00 99 1021.7
20260902073452 61 311 0.0 0.0 0.00 0.00 0.00 99 1021.7
20260902072948 61 308 0.0 0.0 0.00 0.00 0.00 99 1021.8
20260902072444 61 311 0.0 0.0 0.00 0.00 0.00 99 1021.6
20260902071940 61 309 0.0 0.0 0.00 0.00 0.00 99 1021.6
20260902071439 61 310 0.0 0.0 0.00 0.00 0.00 99 1021.6
20260902070936 61 308 0.0 0.0 0.00 0.00 0.00 99 1021.5
20260902070431 61 335 0.0 0.0 0.00 0.00 0.00 99 1021.5
20260902065930 61 309 0.0 0.0 0.00 0.00 0.00 99 1021.6
20260902065425 61 300 0.0 0.0 0.00 0.00 0.00 99 1021.6
20260902064921 61 309 0.0 0.0 0.00 0.00 0.00 99 1021.5
20260902064416 61 308 0.0 0.0 0.00 0.00 0.00 99 1021.3
20260902063911 61 303 0.0 0.0 0.00 0.00 0.00 99 1021.4
20260902063411 61 330 0.0 0.0 0.00 0.00 0.00 99 1021.3
20260902062907 62 304 0.0 0.0 0.00 0.00 0.00 99 1021.5
20260902062406 62 312 0.0 0.0 0.00 0.00 0.00 99 1021.4
20260902061905 62 310 0.0 0.0 0.00 0.00 0.00 99 1021.4
20260902061401 62 303 0.0 0.0 0.00 0.00 0.00 99 1021.7
20260902060857 62 306 0.0 0.0 0.00 0.00 0.00 99 1021.5
20260902060352 62 319 0.0 0.0 0.00 0.00 0.00 99 1021.5
20260902055848 62 299 0.0 0.0 0.00 0.00 0.00 99 1021.5
20260902055344 62 328 0.0 0.0 0.00 0.00 0.00 99 1021.7
20260902054839 62 314 0.0 0.0 0.00 0.00 0.00 99 1021.4
20260902054335 62 301 0.0 0.0 0.00 0.00 0.00 99 1021.6
20260902053830 62 305 0.0 0.0 0.00 0.00 0.00 99 1021.2
20260902053325 62 300 0.0 0.0 0.00 0.00 0.00 99 1021.3
20260902052824 62 296 0.0 0.0 0.00 0.00 0.00 99 1021.0
20260902052320 62 311 0.0 0.0 0.00 0.00 0.00 99 1020.9
20260902051820 62 275 0.9 0.9 0.00 0.00 0.00 99 1020.9
20260902051314 62 1 0.9 0.9 0.00 0.00 0.00 99 1020.8
20260902050809 63 304 0.0 0.0 0.00 0.00 0.00 99 1020.8
20260902050308 63 316 0.0 0.0 0.00 0.00 0.00 99 1020.6
20260902045803 63 309 0.0 0.0 0.00 0.00 0.00 99 1020.7
20260902045259 63 342 0.9 0.9 0.00 0.00 0.00 99 1020.6
20260902044755 63 292 0.0 0.0 0.00 0.00 0.00 99 1020.7
20260902044250 63 298 0.0 0.0 0.00 0.00 0.00 99 1020.6
20260902043744 63 297 0.0 0.0 0.00 0.00 0.00 99 1020.7
20260902043240 63 302 0.0 0.0 0.00 0.00 0.00 99 1020.6
20260902042739 63 304 0.0 0.0 0.00 0.00 0.00 99 1020.7
20260902042234 63 314 0.0 0.0 0.00 0.00 0.00 99 1020.6
20260902041730 63 321 0.0 0.0 0.00 0.00 0.00 99 1020.6
20260902041225 63 310 0.0 0.0 0.00 0.00 0.00 99 1020.4
20260902040724 63 306 0.0 0.0 0.00 0.00 0.00 99 1020.4
20260902040220 63 299 0.0 0.0 0.00 0.00 0.00 99 1020.4
20260902035718 63 306 0.0 0.0 0.00 0.00 0.00 99 1020.3
20260902035214 63 322 0.0 0.0 0.00 0.00 0.00 99 1020.5
20260902034713 63 308 0.0 0.0 0.00 0.00 0.00 99 1020.4
20260902034213 63 304 0.0 0.0 0.00 0.00 0.00 99 1020.5
20260902033711 63 333 0.0 0.0 0.00 0.00 0.00 99 1020.4
20260902033206 63 306 0.0 0.0 0.00 0.00 0.00 99 1020.2
20260902032705 63 299 0.0 0.0 0.00 0.00 0.00 99 1020.3
20260902032200 63 296 0.0 0.0 0.00 0.00 0.00 99 1020.3
20260902031654 63 296 0.0 0.0 0.00 0.00 0.00 99 1020.2
20260902031150 63 298 0.0 0.0 0.00 0.00 0.00 99 1020.1
20260902030646 63 308 0.0 0.0 0.00 0.00 0.00 99 1019.9
20260902030145 63 347 0.9 0.9 0.00 0.00 0.00 99 1019.9
20260902025644 63 344 0.0 0.0 0.00 0.00 0.00 99 1019.8
20260902025140 63 317 0.0 0.9 0.00 0.00 0.00 99 1019.7
20260902024635 63 312 0.0 0.0 0.00 0.00 0.00 99 1019.8
20260902024130 63 313 0.0 0.0 0.00 0.00 0.00 99 1019.9
20260902023626 63 301 0.0 0.0 0.00 0.00 0.00 99 1020.0
20260902023120 63 298 0.0 0.0 0.00 0.00 0.00 99 1019.9
20260902022619 63 304 0.0 0.0 0.00 0.00 0.00 99 1019.8
20260902022116 63 296 0.0 0.0 0.00 0.00 0.00 99 1020.0
20260902021611 63 303 0.0 0.0 0.00 0.00 0.00 99 1019.9